QPF
0.15 0.15 0.14 0.14 0.13 0.14 0.15 0.16 0.16 0.17 0.16 0.14 0.09 0.07 0.08 0.08 0.07 0.07 0.04 0.03 0.04 0.03 0.02 0.03 0.06 0.10 0.13 0.15 0.14 0.11 0.07 0.05 0.05 0.04 0.03 0.03 0.03 0.02 0.01 0.01 0.01 0.00 0.00
0.07 0.07 0.08 0.09 0.09 0.09 0.10 0.10 0.10 0.13 0.13 0.14 0.10 0.09 0.09 0.11 0.09 0.07 0.04 0.04 0.05 0.04 0.03 0.03 0.04 0.07 0.10 0.13 0.14 0.14 0.11 0.07 0.05 0.05 0.04 0.03 0.02 0.02 0.01 0.01 0.01 0.00 0.01
0.02 0.03 0.04 0.04 0.04 0.04 0.05 0.06 0.06 0.06 0.07 0.08 0.09 0.10 0.10 0.09 0.08 0.07 0.05 0.04 0.04 0.04 0.04 0.04 0.04 0.05 0.07 0.10 0.13 0.15 0.16 0.12 0.07 0.05 0.04 0.03 0.04 0.02 0.01 0.01 0.00 0.00 0.00
0.00 0.01 0.01 0.01 0.01 0.01 0.01 0.02 0.03 0.03 0.03 0.05 0.07 0.07 0.07 0.06 0.05 0.05 0.05 0.04 0.03 0.02 0.02 0.03 0.03 0.04 0.05 0.06 0.10 0.17 0.19 0.17 0.13 0.09 0.06 0.05 0.04 0.04 0.02 0.01 0.01 0.00 0.00
0.00 0.00 0.00 0.00 0.00 0.00 0.00 0.00 0.01 0.01 0.02 0.03 0.04 0.04 0.04 0.03 0.03 0.03 0.03 0.03 0.03 0.02 0.02 0.02 0.02 0.03 0.03 0.05 0.08 0.14 0.19 0.20 0.17 0.14 0.10 0.08 0.06 0.05 0.04 0.03 0.01 0.01 0.00
0.00 0.00 0.00 0.00 0.00 0.00 0.00 0.00 0.00 0.00 0.01 0.02 0.02 0.02 0.02 0.03 0.02 0.02 0.01 0.02 0.03 0.03 0.02 0.02 0.02 0.02 0.03 0.04 0.07 0.12 0.16 0.20 0.21 0.18 0.14 0.11 0.09 0.07 0.05 0.04 0.02 0.01 0.01
0.00 0.00 0.00 0.00 0.00 0.00 0.00 0.00 0.00 0.00 0.00 0.01 0.02 0.01 0.02 0.02 0.02 0.01 0.02 0.02 0.02 0.03 0.04 0.05 0.04 0.04 0.03 0.03 0.04 0.07 0.11 0.14 0.19 0.20 0.18 0.16 0.14 0.11 0.07 0.05 0.03 0.02 0.01
0.00 0.00 0.00 0.00 0.00 0.00 0.00 0.00 0.00 0.00 0.00 0.01 0.02 0.03 0.02 0.03 0.04 0.01 0.02 0.02 0.02 0.04 0.06 0.06 0.06 0.06 0.05 0.06 0.03 0.03 0.07 0.09 0.13 0.17 0.17 0.16 0.16 0.15 0.11 0.08 0.05 0.03 0.02
0.00 0.00 0.00 0.00 0.00 0.00 0.00 0.00 0.00 0.00 0.00 0.00 0.01 0.03 0.04 0.04 0.05 0.04 0.05 0.04 0.04 0.06 0.07 0.07 0.06 0.07 0.07 0.07 0.06 0.03 0.05 0.07 0.10 0.13 0.16 0.16 0.15 0.13 0.11 0.09 0.07 0.05 0.03
0.00 0.00 0.00 0.00 0.00 0.00 0.00 0.00 0.00 0.00 0.01 0.00 0.00 0.01 0.02 0.04 0.06 0.07 0.08 0.07 0.05 0.04 0.05 0.06 0.06 0.07 0.09 0.08 0.07 0.04 0.04 0.05 0.08 0.12 0.15 0.17 0.15 0.11 0.08 0.07 0.07 0.07 0.05
0.00 0.00 0.00 0.00 0.00 0.00 0.00 0.00 0.00 0.00 0.01 0.00 0.00 0.00 0.00 0.01 0.03 0.05 0.06 0.08 0.06 0.04 0.04 0.04 0.06 0.08 0.09 0.09 0.09 0.07 0.04 0.04 0.06 0.09 0.13 0.17 0.18 0.13 0.09 0.08 0.09 0.10 0.08
0.00 0.00 0.00 0.00 0.00 0.00 0.00 0.00 0.00 0.00 0.01 0.01 0.01 0.00 0.00 0.00 0.01 0.01 0.02 0.03 0.04 0.03 0.02 0.03 0.04 0.05 0.09 0.09 0.08 0.06 0.05 0.06 0.06 0.06 0.08 0.11 0.16 0.16 0.13 0.11 0.12 0.14 0.13
0.00 0.00 0.00 0.00 0.00 0.00 0.00 0.00 0.00 0.00 0.00 0.01 0.01 0.01 0.00 0.00 0.00 0.00 0.01 0.01 0.01 0.01 0.02 0.02 0.04 0.04 0.06 0.10 0.14 0.12 0.08 0.08 0.08 0.07 0.08 0.08 0.09 0.13 0.13 0.11 0.12 0.14 0.16
0.00 0.00 0.00 0.00 0.00 0.00 0.00 0.00 0.00 0.00 0.00 0.00 0.00 0.00 0.01 0.00 0.00 0.00 0.00 0.01 0.01 0.01 0.02 0.03 0.04 0.07 0.06 0.07 0.12 0.11 0.11 0.09 0.09 0.09 0.09 0.09 0.07 0.07 0.08 0.08 0.08 0.09 0.10
0.00 0.00 0.00 0.00 0.00 0.00 0.00 0.00 0.00 0.00 0.00 0.00 0.00 0.00 0.00 0.00 0.00 0.00 0.00 0.00 0.01 0.01 0.02 0.04 0.06 0.07 0.05 0.04 0.07 0.06 0.10 0.11 0.11 0.11 0.09 0.09 0.08 0.07 0.06 0.05 0.05 0.04 0.03
0.00 0.00 0.00 0.00 0.00 0.00 0.00 0.00 0.00 0.00 0.00 0.00 0.00 0.00 0.00 0.00 0.00 0.00 0.00 0.00 0.01 0.01 0.01 0.02 0.03 0.03 0.02 0.03 0.04 0.04 0.09 0.09 0.09 0.10 0.10 0.10 0.09 0.08 0.07 0.06 0.04 0.03 0.02
0.00 0.00 0.00 0.00 0.00 0.00 0.00 0.00 0.00 0.00 0.00 0.00 0.00 0.00 0.00 0.00 0.00 0.00 0.00 0.00 0.00 0.00 0.01 0.01 0.01 0.02 0.02 0.03 0.05 0.04 0.07 0.09 0.09 0.09 0.10 0.10 0.10 0.10 0.08 0.07 0.05 0.03 0.02
0.00 0.00 0.00 0.00 0.00 0.00 0.00 0.00 0.00 0.00 0.01 0.01 0.01 0.01 0.01 0.00 0.00 0.00 0.00 0.00 0.00 0.01 0.01 0.01 0.01 0.02 0.02 0.03 0.03 0.04 0.05 0.07 0.09 0.10 0.11 0.13 0.13 0.12 0.10 0.08 0.06 0.04 0.03
0.00 0.00 0.00 0.00 0.00 0.00 0.00 0.00 0.00 0.01 0.01 0.01 0.01 0.01 0.01 0.01 0.01 0.01 0.01 0.00 0.00 0.00 0.01 0.00 0.00 0.01 0.01 0.02 0.03 0.03 0.03 0.06 0.08 0.10 0.11 0.12 0.13 0.13 0.12 0.09 0.07 0.05 0.04
0.00 0.00 0.00 0.00 0.00 0.00 0.00 0.00 0.01 0.01 0.01 0.01 0.01 0.01 0.01 0.01 0.01 0.01 0.01 0.00 0.00 0.00 0.01 0.01 0.00 0.00 0.01 0.02 0.05 0.06 0.05 0.05 0.07 0.08 0.09 0.11 0.12 0.12 0.12 0.10 0.08 0.05 0.03
0.00 0.00 0.00 0.00 0.00 0.00 0.00 0.00 0.01 0.01 0.01 0.01 0.01 0.01 0.01 0.01 0.01 0.00 0.00 0.00 0.00 0.00 0.00 0.01 0.01 0.01 0.01 0.03 0.05 0.08 0.08 0.07 0.07 0.08 0.08 0.08 0.09 0.09 0.09 0.09 0.08 0.05 0.03
0.00 0.00 0.00 0.00 0.00 0.00 0.00 0.00 0.00 0.00 0.01 0.01 0.01 0.02 0.01 0.01 0.00 0.00 0.00 0.00 0.00 0.01 0.01 0.01 0.01 0.01 0.01 0.02 0.06 0.10 0.12 0.10 0.08 0.06 0.08 0.08 0.07 0.08 0.08 0.07 0.06 0.04 0.03
0.00 0.00 0.00 0.00 0.00 0.00 0.00 0.00 0.00 0.00 0.00 0.01 0.01 0.02 0.01 0.01 0.01 0.01 0.01 0.00 0.00 0.00 0.00 0.01 0.01 0.01 0.01 0.02 0.05 0.10 0.13 0.15 0.12 0.08 0.08 0.09 0.07 0.08 0.08 0.07 0.06 0.04 0.03
0.00 0.00 0.00 0.00 0.00 0.00 0.00 0.00 0.00 0.00 0.00 0.01 0.01 0.02 0.02 0.03 0.02 0.02 0.02 0.02 0.02 0.01 0.00 0.00 0.00 0.01 0.01 0.03 0.05 0.10 0.17 0.21 0.23 0.20 0.14 0.10 0.08 0.06 0.06 0.06 0.05 0.04 0.02
0.00 0.00 0.00 0.00 0.00 0.00 0.00 0.00 0.00 0.00 0.00 0.01 0.01 0.02 0.02 0.03 0.02 0.01 0.02 0.03 0.03 0.02 0.00 0.00 0.00 0.00 0.00 0.01 0.02 0.07 0.15 0.21 0.24 0.24 0.18 0.10 0.07 0.06 0.05 0.05 0.04 0.04 0.03
0.00 0.00 0.00 0.00 0.00 0.00 0.00 0.00 0.00 0.00 0.00 0.01 0.02 0.02 0.01 0.01 0.01 0.00 0.01 0.03 0.03 0.03 0.02 0.01 0.01 0.00 0.00 0.00 0.01 0.03 0.08 0.16 0.21 0.23 0.17 0.11 0.08 0.07 0.05 0.05 0.03 0.03 0.03
MSLP
1015.84 1015.76 1015.60 1015.41 1015.23 1015.10 1015.05 1015.08 1015.18 1015.32 1015.46 1015.58 1015.66 1015.72 1015.78 1015.87 1016.02 1016.24 1016.53 1016.88 1017.25 1017.60 1017.92 1018.17 1018.37 1018.53 1018.68 1018.84 1019.05 1019.31 1019.62 1019.96 1020.32 1020.69 1021.04 1021.37 1021.68 1021.98 1022.29 1022.60 1022.91 1023.22 1023.51
1016.02 1015.88 1015.66 1015.41 1015.18 1015.01 1014.92 1014.92 1014.99 1015.10 1015.21 1015.29 1015.34 1015.36 1015.37 1015.40 1015.49 1015.65 1015.89 1016.21 1016.56 1016.93 1017.28 1017.58 1017.85 1018.08 1018.29 1018.51 1018.75 1019.03 1019.35 1019.70 1020.05 1020.41 1020.76 1021.10 1021.43 1021.76 1022.09 1022.43 1022.77 1023.10 1023.42
1016.28 1016.08 1015.82 1015.53 1015.26 1015.05 1014.92 1014.88 1014.91 1014.98 1015.04 1015.07 1015.06 1015.02 1014.95 1014.90 1014.91 1014.99 1015.16 1015.42 1015.75 1016.11 1016.48 1016.84 1017.17 1017.48 1017.77 1018.05 1018.34 1018.65 1018.98 1019.32 1019.67 1020.02 1020.37 1020.71 1021.06 1021.41 1021.78 1022.15 1022.53 1022.90 1023.26
1016.55 1016.32 1016.03 1015.71 1015.42 1015.19 1015.03 1014.95 1014.92 1014.93 1014.94 1014.91 1014.83 1014.70 1014.55 1014.41 1014.32 1014.31 1014.39 1014.58 1014.86 1015.20 1015.58 1015.98 1016.37 1016.75 1017.10 1017.45 1017.79 1018.12 1018.46 1018.80 1019.14 1019.49 1019.84 1020.19 1020.56 1020.95 1021.36 1021.78 1022.21 1022.63 1023.03
1016.77 1016.52 1016.22 1015.91 1015.62 1015.37 1015.18 1015.06 1014.99 1014.94 1014.88 1014.78 1014.63 1014.43 1014.19 1013.97 1013.78 1013.67 1013.66 1013.76 1013.97 1014.27 1014.64 1015.05 1015.48 1015.90 1016.32 1016.71 1017.09 1017.45 1017.80 1018.14 1018.48 1018.83 1019.18 1019.56 1019.96 1020.39 1020.84 1021.32 1021.81 1022.28 1022.74
1016.89 1016.65 1016.37 1016.08 1015.80 1015.55 1015.36 1015.20 1015.09 1014.98 1014.85 1014.69 1014.47 1014.20 1013.90 1013.60 1013.33 1013.13 1013.03 1013.05 1013.18 1013.41 1013.74 1014.13 1014.56 1015.01 1015.45 1015.87 1016.28 1016.66 1017.02 1017.37 1017.71 1018.06 1018.43 1018.83 1019.27 1019.75 1020.26 1020.79 1021.34 1021.87 1022.38
1016.91 1016.70 1016.46 1016.20 1015.95 1015.72 1015.51 1015.34 1015.18 1015.02 1014.84 1014.62 1014.35 1014.04 1013.70 1013.35 1013.02 1012.75 1012.57 1012.49 1012.54 1012.69 1012.95 1013.29 1013.69 1014.12 1014.56 1014.99 1015.40 1015.79 1016.16 1016.51 1016.86 1017.23 1017.62 1018.05 1018.53 1019.06 1019.62 1020.22 1020.81 1021.40 1021.95
1016.86 1016.69 1016.49 1016.27 1016.06 1015.84 1015.64 1015.44 1015.25 1015.05 1014.83 1014.58 1014.28 1013.95 1013.59 1013.22 1012.86 1012.54 1012.30 1012.14 1012.10 1012.16 1012.33 1012.59 1012.93 1013.31 1013.71 1014.12 1014.52 1014.91 1015.27 1015.63 1015.99 1016.37 1016.79 1017.25 1017.76 1018.33 1018.95 1019.58 1020.23 1020.85 1021.43
1016.78 1016.64 1016.48 1016.31 1016.13 1015.93 1015.73 1015.51 1015.29 1015.07 1014.82 1014.55 1014.26 1013.93 1013.58 1013.22 1012.85 1012.51 1012.22 1012.00 1011.88 1011.85 1011.92 1012.08 1012.33 1012.63 1012.98 1013.34 1013.71 1014.07 1014.43 1014.78 1015.14 1015.53 1015.96 1016.44 1016.98 1017.58 1018.22 1018.89 1019.56 1020.21 1020.82
1016.70 1016.59 1016.47 1016.33 1016.17 1015.99 1015.78 1015.56 1015.32 1015.07 1014.81 1014.55 1014.26 1013.96 1013.64 1013.30 1012.96 1012.62 1012.31 1012.04 1011.84 1011.73 1011.70 1011.76 1011.91 1012.13 1012.39 1012.69 1013.01 1013.33 1013.66 1013.99 1014.34 1014.73 1015.16 1015.65 1016.19 1016.80 1017.45 1018.13 1018.81 1019.48 1020.09
1016.63 1016.54 1016.45 1016.33 1016.19 1016.01 1015.80 1015.56 1015.31 1015.05 1014.79 1014.54 1014.28 1014.01 1013.73 1013.44 1013.13 1012.80 1012.49 1012.19 1011.94 1011.75 1011.64 1011.61 1011.66 1011.78 1011.97 1012.19 1012.44 1012.71 1013.00 1013.29 1013.62 1013.98 1014.39 1014.86 1015.39 1015.98 1016.63 1017.30 1017.98 1018.64 1019.26
1016.55 1016.48 1016.40 1016.29 1016.16 1015.98 1015.77 1015.52 1015.27 1015.00 1014.75 1014.51 1014.28 1014.05 1013.81 1013.56 1013.29 1013.00 1012.69 1012.38 1012.10 1011.86 1011.68 1011.57 1011.54 1011.58 1011.68 1011.83 1012.01 1012.21 1012.44 1012.69 1012.96 1013.28 1013.65 1014.08 1014.58 1015.14 1015.76 1016.41 1017.07 1017.73 1018.35
1016.44 1016.36 1016.28 1016.18 1016.05 1015.88 1015.67 1015.43 1015.17 1014.91 1014.67 1014.45 1014.24 1014.04 1013.84 1013.63 1013.40 1013.13 1012.85 1012.55 1012.25 1011.98 1011.76 1011.60 1011.50 1011.47 1011.50 1011.57 1011.68 1011.82 1011.98 1012.17 1012.38 1012.64 1012.96 1013.34 1013.78 1014.30 1014.87 1015.49 1016.13 1016.78 1017.41
1016.23 1016.16 1016.08 1015.98 1015.86 1015.69 1015.49 1015.26 1015.02 1014.77 1014.54 1014.33 1014.14 1013.97 1013.80 1013.61 1013.41 1013.17 1012.91 1012.62 1012.33 1012.06 1011.82 1011.62 1011.49 1011.40 1011.37 1011.39 1011.44 1011.51 1011.60 1011.72 1011.87 1012.07 1012.32 1012.64 1013.03 1013.50 1014.02 1014.60 1015.22 1015.85 1016.48
1015.90 1015.83 1015.75 1015.67 1015.56 1015.42 1015.24 1015.03 1014.81 1014.58 1014.37 1014.17 1013.99 1013.82 1013.66 1013.49 1013.31 1013.09 1012.85 1012.59 1012.32 1012.05 1011.82 1011.61 1011.46 1011.34 1011.28 1011.24 1011.24 1011.25 1011.29 1011.35 1011.44 1011.58 1011.77 1012.03 1012.37 1012.78 1013.26 1013.80 1014.39 1015.00 1015.62
1015.44 1015.37 1015.32 1015.25 1015.17 1015.06 1014.92 1014.75 1014.55 1014.35 1014.14 1013.95 1013.77 1013.60 1013.44 1013.27 1013.10 1012.90 1012.68 1012.44 1012.20 1011.96 1011.74 1011.54 1011.38 1011.26 1011.16 1011.10 1011.06 1011.03 1011.03 1011.04 1011.09 1011.18 1011.33 1011.54 1011.83 1012.20 1012.64 1013.14 1013.69 1014.28 1014.89
1014.88 1014.83 1014.79 1014.76 1014.72 1014.65 1014.56 1014.42 1014.26 1014.08 1013.88 1013.69 1013.50 1013.32 1013.15 1012.98 1012.80 1012.61 1012.41 1012.20 1011.99 1011.78 1011.58 1011.41 1011.25 1011.13 1011.03 1010.95 1010.89 1010.84 1010.81 1010.80 1010.83 1010.89 1011.02 1011.20 1011.46 1011.79 1012.20 1012.66 1013.18 1013.73 1014.30
1014.27 1014.25 1014.24 1014.25 1014.25 1014.23 1014.17 1014.08 1013.94 1013.77 1013.58 1013.38 1013.18 1012.99 1012.80 1012.62 1012.45 1012.27 1012.09 1011.91 1011.73 1011.55 1011.38 1011.22 1011.08 1010.96 1010.86 1010.78 1010.71 1010.65 1010.62 1010.61 1010.64 1010.71 1010.83 1011.01 1011.25 1011.56 1011.93 1012.36 1012.83 1013.34 1013.87
1013.68 1013.69 1013.71 1013.76 1013.79 1013.81 1013.78 1013.71 1013.59 1013.43 1013.24 1013.03 1012.82 1012.61 1012.42 1012.23 1012.06 1011.90 1011.75 1011.60 1011.45 1011.30 1011.15 1011.01 1010.88 1010.77 1010.66 1010.58 1010.51 1010.47 1010.45 1010.46 1010.51 1010.60 1010.74 1010.93 1011.18 1011.48 1011.82 1012.21 1012.64 1013.10 1013.57
1013.16 1013.19 1013.24 1013.30 1013.36 1013.40 1013.39 1013.32 1013.20 1013.04 1012.84 1012.62 1012.39 1012.18 1011.98 1011.81 1011.66 1011.52 1011.40 1011.28 1011.16 1011.04 1010.91 1010.79 1010.66 1010.55 1010.44 1010.36 1010.30 1010.27 1010.27 1010.31 1010.40 1010.53 1010.71 1010.93 1011.19 1011.48 1011.81 1012.17 1012.55 1012.95 1013.36
1012.73 1012.76 1012.82 1012.89 1012.95 1012.98 1012.96 1012.89 1012.76 1012.58 1012.36 1012.13 1011.90 1011.69 1011.51 1011.36 1011.23 1011.14 1011.05 1010.97 1010.89 1010.79 1010.68 1010.56 1010.43 1010.30 1010.19 1010.10 1010.05 1010.03 1010.06 1010.14 1010.27 1010.45 1010.67 1010.93 1011.21 1011.52 1011.84 1012.17 1012.51 1012.86 1013.22
1012.37 1012.40 1012.44 1012.49 1012.53 1012.54 1012.49 1012.39 1012.23 1012.03 1011.80 1011.56 1011.33 1011.14 1010.98 1010.87 1010.79 1010.74 1010.70 1010.67 1010.62 1010.54 1010.44 1010.32 1010.18 1010.04 1009.91 1009.81 1009.75 1009.75 1009.80 1009.91 1010.08 1010.31 1010.58 1010.87 1011.19 1011.51 1011.84 1012.16 1012.48 1012.79 1013.11
1012.05 1012.04 1012.06 1012.08 1012.07 1012.04 1011.95 1011.81 1011.62 1011.39 1011.15 1010.91 1010.70 1010.53 1010.41 1010.34 1010.31 1010.32 1010.33 1010.34 1010.33 1010.27 1010.18 1010.06 1009.90 1009.74 1009.59 1009.47 1009.40 1009.40 1009.46 1009.60 1009.80 1010.07 1010.38 1010.72 1011.07 1011.42 1011.76 1012.09 1012.40 1012.71 1013.01
1011.70 1011.66 1011.63 1011.60 1011.55 1011.46 1011.33 1011.16 1010.94 1010.69 1010.44 1010.21 1010.02 1009.88 1009.80 1009.78 1009.81 1009.86 1009.93 1009.98 1009.99 1009.96 1009.87 1009.74 1009.58 1009.39 1009.22 1009.08 1008.99 1008.97 1009.03 1009.18 1009.41 1009.70 1010.05 1010.42 1010.82 1011.20 1011.58 1011.94 1012.27 1012.60 1012.92
1011.29 1011.20 1011.12 1011.04 1010.94 1010.82 1010.66 1010.45 1010.22 1009.97 1009.72 1009.51 1009.34 1009.23 1009.18 1009.20 1009.27 1009.36 1009.47 1009.55 1009.59 1009.57 1009.49 1009.36 1009.18 1008.98 1008.78 1008.61 1008.50 1008.47 1008.52 1008.67 1008.90 1009.21 1009.59 1010.00 1010.43 1010.87 1011.30 1011.71 1012.09 1012.47 1012.83
1010.80 1010.66 1010.54 1010.42 1010.29 1010.14 1009.96 1009.75 1009.51 1009.27 1009.04 1008.84 1008.69 1008.59 1008.57 1008.61 1008.69 1008.81 1008.93 1009.03 1009.08 1009.08 1009.01 1008.87 1008.69 1008.48 1008.27 1008.08 1007.95 1007.90 1007.93 1008.07 1008.30 1008.63 1009.02 1009.47 1009.95 1010.44 1010.93 1011.41 1011.87 1012.31 1012.74
Thickness
5733 5733 5731 5729 5730 5729 5728 5727 5726 5726 5725 5724 5723 5723 5722 5722 5721 5720 5719 5716 5716 5715 5716 5718 5720 5722 5724 5725 5725 5725 5725 5725 5725 5724 5724 5723 5722 5721 5721 5720 5719 5718 5718
5726 5727 5726 5725 5725 5724 5723 5722 5722 5721 5721 5721 5721 5721 5720 5719 5719 5717 5717 5716 5715 5714 5714 5715 5717 5719 5721 5724 5724 5724 5724 5724 5724 5724 5723 5723 5722 5721 5720 5720 5719 5718 5717
5718 5719 5720 5720 5720 5718 5717 5717 5717 5717 5717 5718 5718 5718 5718 5718 5718 5717 5716 5716 5716 5715 5714 5714 5715 5717 5719 5722 5723 5724 5724 5724 5724 5724 5723 5722 5722 5721 5720 5720 5719 5718 5717
5709 5710 5713 5714 5712 5713 5713 5713 5713 5713 5712 5713 5714 5715 5716 5716 5717 5716 5716 5716 5715 5716 5716 5714 5715 5715 5717 5720 5722 5723 5724 5724 5724 5723 5723 5722 5722 5721 5720 5719 5719 5718 5718
5702 5703 5705 5705 5705 5707 5708 5708 5709 5707 5707 5707 5709 5711 5714 5715 5716 5716 5716 5716 5716 5715 5716 5716 5715 5715 5716 5718 5720 5722 5723 5723 5723 5723 5723 5722 5722 5721 5720 5719 5719 5718 5718
5695 5695 5699 5697 5698 5701 5701 5700 5698 5698 5699 5701 5704 5708 5711 5714 5715 5716 5716 5716 5716 5715 5715 5715 5714 5715 5715 5716 5718 5720 5722 5722 5722 5722 5722 5722 5721 5721 5720 5720 5719 5718 5718
5688 5688 5690 5690 5690 5693 5692 5693 5693 5694 5695 5697 5697 5701 5708 5713 5715 5715 5716 5717 5717 5716 5714 5713 5713 5715 5717 5716 5717 5719 5720 5721 5721 5722 5722 5721 5721 5720 5720 5720 5719 5719 5718
5681 5684 5681 5683 5685 5683 5685 5685 5685 5687 5691 5693 5690 5691 5696 5704 5708 5714 5714 5713 5713 5714 5713 5712 5712 5713 5714 5718 5720 5719 5719 5720 5721 5721 5721 5721 5721 5720 5720 5720 5719 5719 5718
5677 5676 5675 5676 5676 5678 5681 5678 5679 5680 5683 5686 5688 5684 5684 5689 5694 5704 5705 5707 5706 5707 5709 5710 5711 5712 5712 5715 5718 5719 5719 5719 5719 5720 5720 5720 5720 5720 5720 5720 5719 5719 5718
5673 5672 5671 5670 5670 5672 5672 5673 5677 5675 5674 5677 5681 5680 5679 5680 5678 5684 5693 5698 5699 5700 5703 5706 5709 5710 5710 5712 5714 5717 5718 5718 5718 5719 5719 5720 5720 5720 5720 5720 5720 5719 5719
5672 5670 5668 5666 5665 5667 5666 5664 5665 5666 5669 5670 5672 5674 5674 5674 5675 5673 5677 5684 5690 5696 5699 5701 5704 5707 5708 5709 5712 5714 5715 5716 5717 5717 5718 5719 5720 5721 5721 5721 5720 5720 5720
5672 5669 5665 5662 5661 5661 5659 5658 5657 5659 5659 5659 5661 5664 5665 5666 5668 5670 5670 5674 5679 5686 5692 5696 5700 5703 5705 5707 5709 5711 5712 5713 5714 5715 5717 5719 5720 5721 5721 5722 5721 5721 5720
5670 5666 5662 5658 5656 5654 5652 5651 5650 5650 5650 5649 5649 5653 5656 5658 5660 5662 5663 5666 5669 5677 5683 5689 5694 5697 5700 5702 5704 5706 5708 5709 5711 5712 5714 5717 5718 5719 5720 5721 5722 5721 5720
5666 5660 5656 5653 5651 5648 5647 5645 5644 5644 5642 5640 5641 5641 5642 5647 5650 5652 5654 5656 5659 5666 5673 5678 5686 5688 5691 5694 5697 5699 5703 5705 5707 5709 5711 5713 5715 5717 5719 5720 5721 5721 5720
5660 5657 5652 5649 5646 5643 5640 5636 5637 5633 5633 5631 5633 5633 5632 5637 5639 5642 5645 5647 5648 5652 5660 5668 5672 5678 5681 5686 5689 5693 5698 5700 5702 5704 5707 5709 5712 5715 5717 5718 5719 5719 5719
5654 5650 5647 5644 5641 5638 5634 5630 5629 5628 5623 5622 5621 5619 5619 5623 5628 5630 5633 5637 5641 5644 5649 5659 5662 5667 5670 5676 5681 5686 5691 5695 5698 5700 5702 5705 5708 5710 5713 5715 5716 5717 5717
5649 5645 5641 5638 5634 5631 5628 5624 5621 5618 5615 5613 5612 5611 5610 5609 5613 5618 5622 5626 5631 5635 5639 5648 5654 5659 5659 5664 5672 5678 5684 5688 5692 5694 5696 5700 5702 5706 5709 5711 5714 5715 5716
5645 5641 5636 5632 5628 5624 5620 5616 5612 5610 5607 5605 5603 5601 5601 5601 5602 5603 5608 5613 5619 5624 5628 5633 5642 5648 5651 5656 5662 5668 5676 5682 5686 5687 5690 5694 5697 5700 5703 5706 5709 5711 5713
5639 5635 5630 5625 5620 5616 5612 5608 5604 5601 5599 5596 5595 5593 5592 5592 5592 5594 5596 5601 5608 5614 5618 5624 5631 5639 5644 5649 5653 5659 5666 5671 5677 5680 5683 5687 5690 5693 5696 5700 5703 5706 5708
5634 5628 5623 5618 5613 5608 5604 5600 5597 5593 5590 5588 5586 5585 5584 5584 5584 5584 5587 5590 5594 5600 5607 5613 5622 5630 5636 5641 5645 5649 5655 5661 5667 5673 5676 5679 5682 5685 5689 5693 5697 5699 5702
5628 5622 5616 5611 5605 5600 5597 5593 5588 5584 5582 5580 5579 5578 5578 5577 5576 5576 5579 5583 5586 5590 5597 5605 5612 5620 5627 5632 5638 5644 5647 5652 5657 5663 5668 5672 5676 5680 5682 5685 5689 5692 5695
5621 5615 5609 5603 5597 5594 5589 5580 5574 5573 5572 5572 5571 5571 5571 5570 5568 5565 5566 5567 5570 5577 5586 5593 5602 5609 5615 5624 5630 5636 5639 5642 5647 5656 5660 5663 5669 5673 5676 5679 5682 5684 5687
5615 5608 5602 5595 5590 5586 5578 5571 5565 5562 5564 5564 5564 5564 5565 5569 5565 5564 5562 5559 5560 5563 5566 5573 5586 5596 5605 5612 5619 5626 5630 5636 5642 5649 5652 5653 5659 5663 5666 5669 5673 5676 5679
5608 5601 5595 5589 5583 5579 5572 5565 5559 5557 5558 5559 5559 5558 5558 5557 5557 5556 5556 5558 5560 5562 5562 5564 5571 5582 5589 5596 5605 5613 5622 5628 5633 5639 5645 5646 5649 5653 5655 5659 5662 5667 5671
5601 5594 5589 5583 5578 5574 5567 5560 5552 5555 5557 5557 5556 5555 5553 5551 5548 5544 5544 5548 5551 5554 5556 5558 5563 5569 5574 5581 5588 5598 5611 5618 5622 5629 5635 5640 5641 5643 5645 5649 5653 5658 5663
5594 5588 5584 5578 5574 5570 5564 5556 5549 5551 5553 5553 5552 5550 5546 5543 5540 5534 5534 5537 5541 5545 5548 5554 5554 5558 5564 5571 5577 5585 5599 5610 5617 5620 5627 5632 5634 5636 5636 5639 5644 5649 5654